Weather History for Goshen, IN

Change the Weather History Date:

Sunday, August 4, 2013

  Actual Average Record
Temperature  
Mean Temperature 64 °F -  
Max Temperature 77 °F 81 °F 98 °F (1955)
Min Temperature 53 °F 60 °F 48 °F (1978)
Degree Days  
Heating Degree Days 1    
Growing Degree Days 14 (Base 50)    
Moisture  
Dew Point 52 °F    
Average Humidity 66    
Maximum Humidity 93    
Minimum Humidity 40    
Precipitation  
Precipitation 0.00 in - - ()
Sea Level Pressure  
Sea Level Pressure 30.15 in    
Wind  
Wind Speed 3 mph (North)    
Max Wind Speed 12 mph    
Max Gust Speed -    
Visibility 10 miles    
Events      
Averages and records for this station are not official NWS values.
T = Trace of Precipitation, MM = Missing Value Source: NWS Daily Summary

Daily Weather History Graph

Daily Weather History Graph

Search for Another Location

Airport:

Trip Planner

Search our weather history database for the weather conditions in past years. The results will help you decide how hot, cold, wet, or windy it might be!

Date:

Astronomy

Aug. 04, 2013 Rise Set
Actual Time 6:41 AM EDT 8:56 PM EDT
Civil Twilight 6:10 AM EDT 9:27 PM EDT
Nautical Twilight 5:31 AM EDT 10:05 PM EDT
Astronomical Twilight 4:49 AM EDT 10:47 PM EDT
Moon 4:41 AM EDT (8/4) 7:19 PM EDT (8/4)
Length of Visible Light 15h 17m
Length of Day
14h 15m
Waning Crescent, 5% of the Moon is Illuminated
Aug 4
Waning Crescent
Aug 6
New
Aug 14
First Quarter
Aug 20
Full
Aug 28
Last Quarter

Hourly Weather History & Observations

Time (EDT) Temp. Dew Point Humidity Pressure Visibility Wind Dir Wind Speed Gust Speed Precip Events Conditions
12:53 AM 59.0 °F 52.0 °F 78% 30.09 in 10.0 mi Calm Calm - N/A   Clear
1:53 AM 59.0 °F 52.0 °F 78% 30.10 in 10.0 mi NNW 4.6 mph - N/A   Clear
2:53 AM 57.0 °F 52.0 °F 83% 30.11 in 10.0 mi Calm Calm - N/A   Clear
3:53 AM 54.0 °F 51.1 °F 90% 30.13 in 10.0 mi Calm Calm - N/A   Clear
4:53 AM 54.0 °F 51.1 °F 90% 30.13 in 10.0 mi Calm Calm - N/A   Clear
5:53 AM 53.1 °F 51.1 °F 93% 30.14 in 10.0 mi NNW 4.6 mph - N/A   Partly Cloudy
6:53 AM 54.0 °F 51.1 °F 90% 30.15 in 10.0 mi Calm Calm - N/A   Mostly Cloudy
7:53 AM 57.9 °F 55.0 °F 90% 30.17 in 10.0 mi North 3.5 mph - N/A   Clear
8:53 AM 63.0 °F 54.0 °F 72% 30.17 in 10.0 mi NE 6.9 mph - N/A   Clear
9:53 AM 66.0 °F 52.0 °F 60% 30.19 in 10.0 mi NNE 5.8 mph - N/A   Clear
10:53 AM 69.1 °F 53.1 °F 57% 30.20 in 10.0 mi North 5.8 mph - N/A   Clear
11:53 AM 71.1 °F 54.0 °F 55% 30.19 in 10.0 mi North 6.9 mph - N/A   Clear
12:53 PM 72.0 °F 53.1 °F 51% 30.18 in 10.0 mi NNE 11.5 mph - N/A   Partly Cloudy
1:53 PM 75.0 °F 53.1 °F 46% 30.17 in 10.0 mi NW 6.9 mph - N/A   Scattered Clouds
2:53 PM 75.0 °F 52.0 °F 44% 30.16 in 10.0 mi North 6.9 mph - N/A   Partly Cloudy
3:53 PM 73.9 °F 50.0 °F 43% 30.15 in 10.0 mi North 3.5 mph - N/A   Scattered Clouds
4:53 PM 75.0 °F 48.9 °F 40% 30.14 in 10.0 mi NNW 4.6 mph - N/A   Partly Cloudy
5:53 PM 75.9 °F 52.0 °F 43% 30.14 in 10.0 mi NNE 6.9 mph - N/A   Scattered Clouds
6:53 PM 73.9 °F 51.1 °F 45% 30.14 in 10.0 mi North 5.8 mph - N/A   Scattered Clouds
7:53 PM 72.0 °F 52.0 °F 49% 30.13 in 10.0 mi NNW 8.1 mph - N/A   Scattered Clouds
8:53 PM 68.0 °F 51.1 °F 55% 30.14 in 10.0 mi North 8.1 mph - N/A   Clear
9:53 PM 64.9 °F 52.0 °F 63% 30.14 in 10.0 mi North 5.8 mph - N/A   Clear
10:53 PM 62.1 °F 54.0 °F 75% 30.13 in 10.0 mi Calm Calm - N/A   Clear
11:53 PM 57.9 °F 54.0 °F 87% 30.13 in 10.0 mi Calm Calm - N/A   Clear